Location: Carnières
(50.1682°N, 3.3474°E)
Time: 07:08:31
(UTC+00:00)

CZ-2C R/B - Pass Details

Date: 23 May 2024
Orbit: 703 x 904 km, 98.2° (Epoch: 19 June)

Event Time Altitude Azimuth Distance (km) Brightness Sun altitude
Rises 01:35:08 0° 17° (NNE) 3,539 8.2 -15.0°
Reaches altitude 10° 01:37:40 10° 23° (NNE) 2,597 7.2 -14.8°
Maximum altitude 01:43:19 49° 98° (E) 1,155 4.0 -14.4°
Enters shadow 01:48:30 12° 171° (S) 2,425 5.1 -14.0°
